EW6343 Weather Reports


time (UTC)temp
C
wind
direction
speed
KPH
gust
KPH
rain 1hr
cm
rain 24hr
cm
rain mn
cm
humidity
%
barometer
mb
20260507182004 13 87 3.2 14.5 0.00 0.00 0.00 76 1014.2
20260507181504 14 73 3.2 14.5 0.00 0.00 0.00 75 1014.2
20260507181004 14 89 3.2 14.5 0.00 0.00 0.00 74 1014.2
20260507180504 14 90 3.2 14.5 0.00 0.00 0.00 72 1014.2
20260507175504 14 106 3.2 14.5 0.00 0.00 0.00 72 1014.1
20260507175004 15 181 3.2 11.3 0.00 0.00 0.00 71 1014.1
20260507174504 14 164 4.8 11.3 0.00 0.00 0.00 70 1014.2
20260507171503 15 97 3.2 11.3 0.00 0.00 0.00 70 1014.3
20260507171004 14 81 3.2 16.1 0.00 0.00 0.00 69 1014.4
20260507170503 14 68 3.2 16.1 0.00 0.00 0.00 68 1014.5
20260507170004 14 79 3.2 14.5 0.00 0.00 0.00 71 1014.4
20260507165504 13 93 4.8 14.5 0.00 0.00 0.00 70 1014.5
20260507165004 13 91 4.8 14.5 0.00 0.00 0.00 69 1014.4
20260507164504 14 90 4.8 14.5 0.00 0.00 0.00 68 1014.4
20260507163004 15 137 3.2 14.5 0.00 0.00 0.00 65 1014.4
20260507162503 15 192 3.2 11.3 0.00 0.00 0.00 64 1014.4
20260507162005 15 110 3.2 11.3 0.00 0.00 0.00 65 1014.4
20260507161503 15 101 4.8 11.3 0.00 0.00 0.00 65 1014.4
20260507160503 14 92 4.8 14.5 0.00 0.00 0.00 66 1014.4
20260507154504 15 167 4.8 14.5 0.00 0.00 0.00 65 1014.5
20260507154003 15 194 4.8 14.5 0.00 0.00 0.00 63 1014.6
20260507153004 15 82 3.2 9.7 0.00 0.00 0.00 64 1014.6
20260507152504 14 86 4.8 16.1 0.00 0.00 0.00 63 1014.6
20260507152003 14 93 4.8 16.1 0.00 0.00 0.00 63 1014.6
20260507150004 15 209 3.2 14.5 0.00 0.00 0.00 64 1014.6
20260507145004 14 199 4.8 16.1 0.00 0.00 0.00 61 1014.7
20260507144004 14 207 4.8 16.1 0.00 0.00 0.00 62 1014.9
20260507143003 15 192 4.8 16.1 0.00 0.00 0.00 60 1015.0
20260507142003 15 202 4.8 16.1 0.00 0.00 0.00 59 1015.0
20260507140004 15 198 6.4 16.1 0.00 0.00 0.00 57 1015.2
20260507132003 16 211 6.4 19.3 0.00 0.00 0.00 57 1015.2
20260507131006 16 199 4.8 16.1 0.00 0.00 0.00 59 1015.2
20260507125006 16 201 6.4 19.3 0.00 0.00 0.00 57 1015.3
20260507124505 16 202 9.7 20.9 0.00 0.00 0.00 57 1015.3
20260507123506 16 193 9.7 20.9 0.00 0.00 0.00 55 1015.3
20260507122505 16 199 6.4 20.9 0.00 0.00 0.00 58 1015.3
20260507114506 15 188 4.8 16.1 0.00 0.00 0.00 65 1015.5
20260507113505 15 209 4.8 11.3 0.00 0.00 0.00 69 1015.4
20260507112005 15 200 4.8 11.3 0.00 0.00 0.00 69 1015.4
20260507103505 13 202 4.8 19.3 0.00 0.00 0.00 74 1015.6
20260507103005 13 218 4.8 11.3 0.00 0.00 0.00 75 1015.6
20260507101507 13 223 4.8 11.3 0.00 0.00 0.00 79 1015.6
20260507101005 13 222 3.2 11.3 0.00 0.00 0.00 79 1015.6
20260507095505 12 194 3.2 9.7 0.00 0.00 0.00 83 1015.7
20260507095005 12 202 4.8 16.1 0.00 0.00 0.00 83 1015.7
20260507094005 12 197 4.8 11.3 0.00 0.00 0.00 84 1015.7
20260507093006 12 195 3.2 11.3 0.00 0.00 0.00 86 1015.5
20260507092505 12 197 3.2 9.7 0.00 0.00 0.00 87 1015.5
20260507091505 12 202 3.2 6.4 0.00 0.00 0.00 89 1015.6
20260507090505 11 0 0.0 9.7 0.00 0.00 0.00 90 1015.6
20260507085505 11 0 0.0 0.0 0.00 0.00 0.00 92 1015.6
20260507085005 11 0 0.0 0.0 0.00 0.00 0.00 92 1015.6
20260507084505 10 0 0.0 0.0 0.00 0.00 0.00 92 1015.5
20260507081505 9 0 0.0 0.0 0.00 0.00 0.00 95 1015.7
20260507081004 9 0 0.0 0.0 0.00 0.00 0.00 95 1015.7
20260507080505 9 0 0.0 0.0 0.00 0.00 0.00 95 1015.7
20260507080005 8 0 0.0 0.0 0.00 0.00 0.00 95 1015.8
20260507075504 8 0 0.0 0.0 0.00 0.00 0.00 96 1015.7
20260507074505 8 0 0.0 0.0 0.00 0.00 0.00 96 1015.6
20260507074005 8 0 0.0 0.0 0.00 0.00 0.00 96 1015.7
20260507073005 7 0 0.0 0.0 0.00 0.00 0.00 96 1015.7
20260507065505 6 0 0.0 0.0 0.00 0.00 0.00 97 1015.5
20260507065007 6 0 0.0 0.0 0.00 0.00 0.00 97 1015.5
20260507064004 6 0 0.0 0.0 0.00 0.00 0.00 97 1015.4
20260507063005 6 0 0.0 0.0 0.00 0.00 0.00 97 1015.3
20260507062504 6 0 0.0 0.0 0.00 0.00 0.00 97 1015.3
20260507062005 6 0 0.0 0.0 0.00 0.00 0.00 97 1015.3
20260507061505 6 0 0.0 0.0 0.00 0.00 0.00 97 1015.2
20260507060505 6 0 0.0 0.0 0.00 0.00 0.00 97 1015.2
20260507053504 5 0 0.0 0.0 0.00 0.00 0.00 97 1015.1
20260507052505 5 0 0.0 0.0 0.00 0.00 0.00 97 1015.1
20260507052004 5 0 0.0 0.0 0.00 0.00 0.00 97 1015.0
20260507051504 5 0 0.0 0.0 0.00 0.00 0.00 97 1015.0
20260507050005 5 0 0.0 0.0 0.00 0.00 0.00 97 1014.9
20260507045504 5 0 0.0 0.0 0.00 0.00 0.00 97 1014.9
20260507045005 5 0 0.0 0.0 0.00 0.00 0.00 97 1014.9
20260507044504 5 0 0.0 0.0 0.00 0.00 0.00 97 1015.0
20260507044004 5 0 0.0 0.0 0.00 0.00 0.00 97 1015.0
20260507043505 5 0 0.0 0.0 0.00 0.00 0.00 97 1015.0
20260507043004 5 0 0.0 0.0 0.00 0.00 0.00 97 1015.0
20260507042505 5 0 0.0 0.0 0.00 0.00 0.00 97 1014.9
20260507042005 5 0 0.0 0.0 0.00 0.00 0.00 97 1014.9
20260507041504 5 0 0.0 0.0 0.00 0.00 0.00 97 1014.9
20260507041005 5 0 0.0 0.0 0.00 0.00 0.00 97 1014.9
20260507040504 5 0 0.0 0.0 0.00 0.00 0.00 97 1014.8
20260507035005 5 0 0.0 0.0 0.00 0.00 0.00 96 1014.9
20260507032504 5 0 0.0 0.0 0.00 0.00 0.00 97 1014.8
20260507032004 5 0 0.0 0.0 0.00 0.00 0.00 97 1014.8
20260507031504 5 0 0.0 0.0 0.00 0.00 0.00 96 1014.8
20260507031004 5 0 0.0 0.0 0.00 0.00 0.00 97 1014.8
20260507030004 5 0 0.0 0.0 0.00 0.00 0.00 96 1014.7